Wind_Speed
55 54 52 49 43 38 36 36 34 33 32 29 28 25 23 21 20 21 20 19 21 21 20 22 23 23 24 24 24 23 21 21 23 19 19 18 20 18 18 19 19 21 20
54 52 52 48 45 42 37 35 34 34 33 33 29 27 25 24 24 24 24 24 23 23 23 25 26 24 26 26 26 27 26 25 26 27 23 22 22 22 22 23 24 25 24
56 53 52 51 48 44 39 35 34 35 35 33 32 31 30 29 26 27 27 28 27 26 24 25 28 29 30 29 28 29 31 30 31 32 32 28 26 27 27 28 28 29 29
54 53 52 50 49 43 37 35 34 34 36 36 36 36 33 32 32 30 27 27 30 30 28 25 25 28 31 32 32 32 31 32 34 37 39 38 35 32 33 34 32 31 32
52 51 49 46 44 40 37 35 34 34 35 38 38 39 39 37 34 35 35 34 30 29 28 28 27 27 26 27 30 32 34 35 36 37 40 42 42 41 42 39 38 37 36
49 47 44 44 41 39 36 36 34 33 34 36 40 42 41 43 41 39 36 35 34 34 34 32 32 32 32 32 32 33 35 36 39 41 43 46 46 46 45 44 44 44 45
48 46 46 44 43 39 35 36 36 35 33 36 37 40 43 43 42 41 40 40 40 39 39 38 39 39 39 39 39 40 41 43 44 44 46 47 49 48 45 46 48 51 51
45 45 44 44 42 39 38 38 36 36 35 34 35 38 40 41 41 42 41 42 44 45 45 44 45 44 44 42 41 43 43 45 45 45 48 51 50 49 51 48 47 49 49
42 41 42 41 39 38 37 35 33 34 34 34 34 35 37 37 37 36 37 40 44 45 45 45 44 44 42 41 41 43 43 47 44 44 46 47 47 49 51 52 54 51 55
37 37 36 35 34 35 33 30 28 30 29 28 29 29 29 30 29 28 30 33 37 39 39 41 42 42 41 40 42 43 47 49 45 45 46 45 43 43 43 52 56 53 56
34 38 35 33 33 33 32 32 30 30 30 31 31 31 31 31 29 27 26 28 31 32 34 36 37 35 34 33 34 37 42 38 38 40 42 46 49 51 47 43 43 48 57
31 32 33 36 36 37 35 34 34 33 33 34 34 35 35 34 33 30 27 28 27 31 33 33 32 29 30 31 31 32 33 33 37 41 44 47 48 51 51 52 51 46 50
24 26 27 26 30 34 35 33 33 33 34 33 34 35 35 34 32 30 27 25 24 27 26 27 26 26 28 29 29 30 32 36 41 44 48 51 51 50 55 58 59 60 58
8 9 15 21 24 26 28 29 31 30 30 31 32 31 30 29 29 26 24 21 20 22 22 23 23 24 24 26 29 31 34 36 37 40 43 46 49 52 54 55 60 60 63
8 7 8 11 13 18 21 24 26 28 30 29 28 25 23 23 20 19 20 21 21 21 22 24 25 26 25 24 25 27 31 35 38 39 40 43 47 48 49 48 54 52 56
13 15 14 14 15 18 19 22 25 27 28 27 25 23 21 19 17 17 18 18 18 20 22 21 21 21 22 25 30 32 32 32 31 34 36 39 45 47 48 49 52 53 58
11 15 19 18 17 17 19 21 23 25 27 26 24 22 20 18 17 17 16 16 16 16 17 17 21 25 26 26 25 24 24 21 20 22 25 30 35 42 48 48 39 39 48
11 8 8 12 13 14 14 16 19 21 23 24 23 21 21 21 21 19 18 17 18 19 19 19 20 20 19 18 17 19 22 23 23 23 26 33 39 39 34 32 35 41 39
5 3 1 3 7 10 12 14 17 19 20 20 18 18 19 19 17 17 18 16 14 15 14 13 14 13 13 14 16 19 20 21 20 21 26 29 36 30 26 27 25 26 24
6 3 2 2 2 4 11 16 18 20 19 17 16 13 13 14 13 13 13 12 12 11 10 9 9 10 12 13 15 17 17 16 19 21 24 25 26 21 15 9 14 10 11
10 7 4 2 3 5 8 11 17 20 18 16 14 13 12 11 10 9 9 9 9 9 9 8 9 9 9 11 12 13 14 15 16 17 17 18 16 9 2 11 11 3 8
13 10 8 6 5 7 11 15 17 16 14 12 11 11 11 11 9 7 6 4 4 5 5 5 6 7 9 11 13 12 12 13 13 12 11 15 17 15 12 11 11 4 5
20 15 13 12 10 12 14 15 16 15 14 13 12 12 11 11 10 8 5 3 1 1 3 4 6 8 9 9 9 11 13 12 9 8 8 8 11 12 10 5 4 8 8
21 23 23 21 20 20 19 20 18 15 13 12 11 10 10 9 8 6 4 2 2 4 6 8 9 10 10 9 10 10 11 12 9 7 5 7 7 5 1 4 7 10 12
25 29 29 27 27 26 24 23 21 18 15 14 12 10 8 8 7 6 4 3 2 3 4 5 5 6 8 10 14 11 10 11 8 6 4 3 5 3 3 2 4 6 7
28 31 32 30 29 26 24 24 24 22 19 16 14 13 10 8 6 5 4 5 5 6 6 7 8 9 9 10 11 12 13 11 9 8 7 6 5 6 7 7 6 7 8
Wind_Direction
225 225 227 230 231 234 235 232 230 229 229 231 230 232 237 234 231 233 235 236 237 239 241 239 239 239 240 243 250 255 256 258 263 270 272 271 270 269 259 258 262 261 262
226 226 229 231 233 233 236 236 233 231 229 229 230 229 230 229 232 234 239 242 242 244 243 244 246 246 246 246 247 252 255 258 264 274 275 276 279 277 272 265 264 261 262
227 229 230 232 233 234 235 237 236 233 231 229 230 231 230 228 230 238 242 246 249 251 255 254 251 250 251 250 251 254 257 261 266 271 275 274 273 273 272 271 267 261 254
228 229 231 233 234 235 237 238 240 237 234 231 231 233 235 234 233 238 242 246 248 250 254 258 258 255 256 257 259 259 261 262 263 265 270 274 272 270 269 267 266 262 258
227 227 231 233 235 234 234 236 238 238 237 235 234 234 236 237 238 239 243 247 249 251 253 255 258 261 264 264 264 264 262 262 262 263 265 268 268 267 266 272 269 271 268
228 229 229 230 231 231 232 233 235 238 238 237 236 236 238 239 240 241 243 246 248 250 253 257 259 263 266 267 268 268 270 267 264 264 265 266 268 268 270 268 270 267 264
226 228 229 227 228 229 230 232 233 235 239 239 238 238 239 242 243 244 245 248 251 254 257 260 264 266 268 270 272 273 271 270 270 270 270 270 272 272 274 273 269 267 267
227 229 230 232 233 232 233 236 238 238 239 241 242 243 244 245 246 247 249 250 253 257 260 263 265 268 270 272 274 275 273 271 269 270 269 275 276 277 277 278 279 278 276
228 231 232 233 236 237 237 239 241 243 244 245 246 247 249 251 252 252 252 254 257 259 263 266 268 271 273 274 276 276 277 274 277 276 275 275 275 276 276 276 271 270 269
230 234 235 237 237 239 240 240 243 245 247 250 251 252 255 258 259 259 256 256 259 262 266 266 269 272 276 278 278 280 280 282 288 290 290 286 284 280 277 271 269 260 265
235 235 237 241 243 244 246 246 247 250 253 255 258 260 262 264 264 262 259 257 259 262 266 269 272 276 279 280 278 275 275 287 288 289 289 290 290 290 287 284 280 274 266
238 243 243 244 246 248 250 252 253 254 256 259 262 264 266 268 270 268 266 263 264 264 269 274 278 281 283 283 283 284 288 292 290 287 285 284 283 282 289 292 290 282 275
234 244 250 254 253 252 253 252 254 255 256 260 261 264 267 270 272 273 273 270 267 266 270 274 278 281 281 280 281 283 287 284 283 284 286 288 290 290 289 287 287 286 283
165 195 225 239 246 249 249 252 251 252 256 259 261 264 268 272 273 272 273 272 265 264 271 276 274 271 272 278 282 286 286 289 291 290 290 292 293 287 283 280 275 276 276
221 226 233 236 235 239 241 244 248 252 255 257 262 267 270 270 273 273 271 269 265 267 271 268 267 270 274 276 280 285 289 291 292 294 295 295 295 295 293 291 282 274 264
253 247 244 244 244 241 242 245 248 250 253 255 256 258 265 268 268 267 265 261 259 257 258 263 268 269 274 281 284 287 289 293 294 294 294 294 295 294 288 285 285 279 265
281 256 247 245 247 248 244 244 248 250 249 247 247 251 252 256 261 259 265 264 255 257 260 265 272 276 279 282 287 294 302 306 308 312 309 309 308 304 292 288 284 282 287
299 286 253 237 240 244 244 244 246 247 249 248 248 245 247 253 255 256 260 262 265 266 268 268 271 276 281 288 297 301 303 306 309 313 312 322 321 314 313 306 295 292 283
306 257 265 220 238 235 237 241 241 242 244 246 242 242 239 246 255 259 259 257 256 257 258 263 269 278 290 298 305 309 312 312 312 315 324 332 332 328 317 315 311 302 300
274 265 320 289 196 265 231 234 241 229 218 212 213 210 217 232 239 243 244 245 246 250 255 261 278 294 300 302 303 310 316 318 318 323 330 342 343 346 341 15 32 25 119
251 223 220 284 277 219 227 216 212 203 189 186 194 201 215 221 228 231 235 242 248 251 258 271 280 288 292 299 312 319 318 318 321 323 330 332 340 2 100 299 313 283 171
244 225 218 226 229 204 187 175 176 180 182 189 185 189 203 204 203 201 197 200 221 235 254 274 280 293 301 312 316 311 310 314 324 328 325 310 310 309 295 294 308 292 157
241 231 222 216 207 194 186 184 180 175 176 177 181 187 184 182 175 172 170 156 158 254 310 316 308 306 307 310 310 314 319 321 328 325 341 349 312 290 292 305 276 247 225
230 220 206 199 194 192 190 185 183 182 180 184 186 171 160 153 152 153 147 112 37 351 341 338 333 328 323 321 318 319 315 314 301 305 316 334 319 294 55 114 127 133 147
216 202 193 186 179 175 176 175 177 176 172 162 156 155 145 128 116 100 86 69 33 3 347 338 336 337 333 332 329 314 309 306 310 316 330 322 306 254 239 203 195 188 195
191 182 177 175 173 174 171 166 168 159 159 158 148 151 150 135 115 90 73 70 54 39 22 359 350 338 329 318 307 304 300 301 285 293 293 289 283 253 240 232 227 224 214
Height
1503 1511 1517 1523 1529 1534 1538 1543 1548 1552 1557 1560 1564 1568 1570 1572 1574 1576 1578 1580 1582 1584 1586 1586 1586 1588 1590 1591 1592 1592 1593 1592 1591 1591 1591 1592 1591 1591 1591 1590 1590 1590 1590
1496 1504 1510 1516 1522 1527 1531 1537 1543 1547 1551 1555 1560 1563 1566 1568 1570 1572 1574 1576 1578 1580 1582 1583 1583 1585 1585 1587 1588 1588 1588 1589 1589 1587 1589 1588 1588 1587 1586 1585 1585 1584 1585
1490 1497 1503 1509 1514 1520 1526 1531 1536 1541 1545 1550 1554 1556 1559 1562 1565 1567 1569 1572 1573 1575 1577 1578 1579 1581 1581 1582 1584 1584 1584 1586 1585 1583 1582 1583 1583 1582 1581 1579 1579 1578 1578
1483 1490 1496 1502 1507 1514 1520 1525 1529 1534 1539 1543 1546 1549 1552 1556 1560 1563 1565 1566 1568 1570 1571 1573 1574 1574 1575 1577 1579 1579 1580 1580 1579 1577 1576 1574 1574 1575 1572 1571 1570 1569 1569
1476 1483 1489 1496 1503 1508 1513 1517 1522 1526 1531 1535 1539 1542 1545 1548 1552 1555 1558 1561 1563 1564 1565 1567 1567 1568 1569 1570 1571 1571 1572 1571 1570 1569 1567 1564 1564 1565 1563 1563 1562 1561 1561
1469 1475 1483 1489 1495 1500 1506 1510 1514 1518 1522 1527 1530 1533 1536 1539 1543 1548 1552 1554 1556 1557 1558 1559 1561 1561 1562 1563 1563 1564 1563 1563 1562 1561 1559 1555 1553 1554 1555 1555 1555 1552 1549
1462 1470 1476 1482 1487 1492 1498 1503 1506 1510 1515 1517 1521 1524 1527 1531 1535 1539 1543 1546 1547 1548 1550 1551 1552 1552 1553 1554 1555 1555 1555 1553 1553 1554 1550 1547 1544 1545 1547 1546 1544 1542 1541
1458 1464 1470 1475 1480 1486 1490 1494 1499 1503 1506 1510 1513 1516 1519 1522 1526 1530 1534 1537 1538 1538 1540 1541 1542 1542 1543 1544 1546 1544 1543 1541 1542 1544 1542 1536 1536 1537 1535 1535 1535 1532 1531
1451 1457 1463 1468 1474 1478 1483 1487 1491 1495 1498 1501 1505 1508 1510 1513 1517 1522 1526 1527 1527 1528 1529 1529 1530 1530 1532 1535 1535 1533 1531 1526 1530 1531 1529 1527 1527 1526 1524 1525 1521 1522 1515
1446 1450 1457 1463 1468 1471 1476 1481 1484 1487 1491 1495 1497 1500 1503 1506 1509 1513 1517 1518 1518 1519 1520 1519 1519 1519 1522 1524 1524 1523 1518 1515 1520 1516 1513 1512 1513 1512 1514 1511 1511 1507 1507
1443 1447 1453 1458 1461 1465 1470 1475 1479 1482 1485 1487 1490 1493 1495 1498 1501 1505 1508 1509 1509 1510 1509 1509 1510 1511 1513 1514 1514 1513 1509 1511 1510 1508 1504 1500 1496 1495 1498 1500 1500 1498 1494
1440 1444 1447 1451 1456 1460 1464 1468 1472 1476 1478 1480 1482 1484 1486 1489 1491 1495 1499 1500 1502 1501 1500 1501 1501 1503 1504 1504 1503 1502 1502 1502 1500 1498 1495 1491 1489 1486 1483 1480 1478 1481 1479
1436 1439 1442 1446 1450 1454 1457 1461 1465 1468 1471 1473 1475 1477 1478 1481 1483 1485 1489 1491 1492 1492 1493 1493 1494 1495 1495 1495 1495 1495 1495 1493 1491 1489 1485 1480 1478 1476 1472 1467 1462 1460 1458
1433 1435 1437 1440 1443 1447 1450 1454 1458 1460 1463 1465 1467 1469 1472 1474 1475 1478 1480 1482 1484 1485 1486 1487 1487 1487 1488 1487 1487 1487 1486 1485 1483 1479 1475 1470 1466 1464 1460 1456 1449 1445 1439
1431 1433 1434 1436 1439 1441 1444 1448 1451 1454 1457 1459 1461 1464 1466 1468 1470 1472 1474 1475 1477 1478 1480 1480 1480 1480 1480 1480 1480 1479 1478 1475 1472 1469 1465 1461 1456 1452 1447 1445 1440 1431 1426
1428 1429 1431 1433 1435 1437 1439 1441 1444 1446 1449 1452 1455 1457 1459 1461 1464 1466 1467 1469 1470 1472 1472 1473 1473 1474 1474 1473 1472 1470 1468 1465 1463 1459 1455 1452 1447 1441 1435 1430 1426 1420 1410
1423 1425 1426 1427 1429 1431 1433 1435 1438 1441 1443 1446 1449 1452 1454 1455 1458 1460 1461 1463 1464 1465 1466 1467 1468 1468 1467 1465 1463 1461 1458 1457 1455 1452 1448 1444 1437 1430 1422 1416 1414 1408 1404
1419 1419 1420 1420 1423 1425 1428 1430 1433 1436 1439 1442 1444 1447 1449 1450 1452 1454 1456 1457 1459 1460 1460 1461 1461 1460 1459 1457 1456 1454 1452 1451 1448 1445 1442 1437 1429 1420 1411 1407 1403 1399 1394
1418 1417 1417 1416 1418 1421 1425 1428 1430 1433 1436 1439 1441 1443 1445 1447 1448 1450 1451 1453 1454 1454 1455 1455 1455 1454 1453 1452 1451 1449 1447 1445 1442 1439 1435 1429 1423 1416 1409 1404 1397 1391 1385
1419 1418 1416 1415 1416 1418 1421 1424 1427 1429 1431 1434 1436 1439 1441 1443 1445 1446 1447 1448 1450 1450 1450 1450 1450 1449 1448 1447 1446 1444 1442 1439 1436 1433 1429 1425 1420 1414 1411 1406 1401 1393 1389
1419 1416 1415 1414 1415 1416 1419 1420 1424 1426 1428 1431 1434 1436 1439 1441 1442 1443 1444 1445 1446 1446 1446 1445 1444 1444 1443 1442 1441 1439 1437 1435 1432 1429 1426 1424 1422 1416 1415 1412 1408 1404 1400
1417 1414 1412 1412 1414 1416 1418 1421 1424 1426 1429 1431 1433 1435 1436 1438 1440 1441 1441 1442 1442 1442 1441 1440 1440 1440 1440 1438 1436 1435 1434 1431 1429 1426 1424 1423 1420 1416 1414 1412 1411 1407 1402
1413 1410 1409 1410 1412 1414 1418 1421 1424 1427 1428 1431 1433 1434 1436 1437 1437 1439 1440 1440 1440 1439 1438 1438 1438 1438 1436 1436 1435 1433 1430 1428 1426 1425 1423 1419 1419 1417 1412 1409 1409 1408 1407
1408 1406 1406 1406 1408 1412 1414 1418 1422 1426 1428 1430 1432 1435 1436 1437 1437 1437 1438 1439 1438 1438 1437 1437 1436 1435 1435 1434 1432 1429 1427 1426 1426 1425 1421 1419 1419 1419 1415 1412 1412 1411 1411
1401 1402 1403 1404 1406 1411 1416 1417 1418 1422 1427 1430 1431 1434 1436 1438 1438 1437 1437 1437 1437 1436 1435 1435 1435 1433 1431 1429 1428 1427 1427 1427 1426 1423 1422 1419 1420 1419 1418 1417 1417 1416 1415
1398 1398 1399 1403 1403 1408 1412 1418 1420 1420 1424 1429 1431 1432 1434 1435 1436 1436 1437 1436 1436 1435 1434 1433 1431 1430 1428 1427 1427 1427 1427 1425 1424 1423 1422 1420 1419 1419 1420 1419 1417 1418 1417